Location: The Saddle
(36.8333°N, 80.3417°W)
Time: 04:42:39
(UTC-04:00)

Vanguard 3 - Pass Details

Date: 03 March 2024
Orbit: 510 x 3234 km, 33.3° (Epoch: 24 April)

Event Time Altitude Azimuth Distance (km) Brightness Sun altitude
Rises 20:04:46 0° 255° (WSW) 6,144 12.8 -22.1°
Reaches altitude 10° 20:08:21 10° 254° (WSW) 5,405 12.2 -22.8°
Maximum altitude 20:26:10 78° 172° (S) 3,271 10.0 -26.3°
Enters shadow 20:36:30 38° 95° (E) 4,193 10.1 -28.3°
